IRIDIUM 8

Last updated on Mon Jun 19 2017 00:17:51 GMT+0000 (Coordinated Universal Time)

1 24792U 97020A 17169.49238209 .00000063 00000-0 15294-4 0 9997 2 24792 86.3951 318.1390 0002288 93.7319 266.4138 14.34213864 53380
UTC large
Height (km)
Speed (km/s)
/
Latitude / Longitude
Inclination (degrees)
Orbital Period (minutes)
Azimuth
Elevation
Range (km)
Doppler Factor

Next 0 passes for location: London (51.5072 / 0.1276)

Sorry there are no passes over London.
IRIDIUM 8